EW9688 Weather Reports


Display with metric or nautical units.
time (UTC)temp
F
wind
direction
speed
MPH
gust
MPH
rain 1hr
in
rain 24hr
in
rain mn
in
humidity
%
barometer
mb
20260509184219 72 19 3.0 6.0 0.00 0.00 0.00 15 1014.0
20260509183219 72 23 5.0 8.0 0.00 0.00 0.00 20 1014.0
20260509182220 72 276 4.0 8.0 0.00 0.00 0.00 16 1014.0
20260509181219 71 356 5.0 8.0 0.00 0.00 0.00 15 1014.1
20260509180220 70 31 5.0 9.0 0.00 0.00 0.00 18 1014.1
20260509175220 70 3 6.0 8.0 0.00 0.00 0.00 17 1014.2
20260509174217 70 14 5.0 7.0 0.00 0.00 0.00 17 1014.2
20260509173220 70 16 6.0 9.0 0.00 0.00 0.00 19 1014.2
20260509172218 70 278 3.0 6.0 0.00 0.00 0.00 20 1014.2
20260509171219 70 309 5.0 10.0 0.00 0.00 0.00 18 1014.3
20260509170222 70 326 4.0 6.0 0.00 0.00 0.00 18 1014.2
20260509165221 70 267 3.0 6.0 0.00 0.00 0.00 20 1014.1
20260509164218 68 353 4.0 7.0 0.00 0.00 0.00 23 1014.0
20260509163221 69 18 5.0 7.0 0.00 0.00 0.00 24 1014.0
20260509162219 68 286 2.0 3.0 0.00 0.00 0.00 23 1014.0
20260509161219 68 231 2.0 2.0 0.00 0.00 0.00 22 1014.0
20260509160222 67 293 2.0 3.0 0.00 0.00 0.00 23 1014.0
20260509155222 67 16 4.0 5.0 0.00 0.00 0.00 23 1014.1
20260509154219 67 276 2.0 3.0 0.00 0.00 0.00 22 1014.1
20260509153222 66 303 3.0 5.0 0.00 0.00 0.00 22 1014.2
20260509152222 66 350 2.0 4.0 0.00 0.00 0.00 21 1014.3
20260509151220 65 274 2.0 4.0 0.00 0.00 0.00 24 1014.5
20260509150217 64 255 2.0 3.0 0.00 0.00 0.00 24 1014.4
20260509145217 0 198 4.0 6.0 0.00 0.00 0.00
20260509144243 63 203 4.0 6.0 0.00 0.00 0.00 25 1014.6
20260509143240 62 194 2.0 3.0 0.00 0.00 0.00 27 1014.6
20260509142223 60 249 3.0 6.0 0.00 0.00 0.00 29 1014.6
20260509141257 56 258 2.0 4.0 0.00 0.00 0.00 35 1014.7
20260509140222 56 198 3.0 8.0 0.00 0.00 0.00 35 1014.8
20260509135220 57 245 2.0 2.0 0.00 0.00 0.00 35 1014.8
20260509134221 57 219 1.0 2.0 0.00 0.00 0.00 35 1014.7
20260509133221 57 249 2.0 2.0 0.00 0.00 0.00 35 1014.6
20260509132221 57 229 1.0 2.0 0.00 0.00 0.00 33 1014.6
20260509131221 57 175 3.0 4.0 0.00 0.00 0.00 33 1014.5
20260509130242 56 220 2.0 3.0 0.00 0.00 0.00 39 1014.4
20260509125222 57 261 1.0 2.0 0.00 0.00 0.00 38 1014.3
20260509124242 57 354 2.0 3.0 0.00 0.00 0.00 34 1014.1
20260509123222 57 23 2.0 2.0 0.00 0.00 0.00 36 1013.9
20260509122222 57 13 1.0 1.0 0.00 0.00 0.00 35 1013.6
20260509121222 57 115 1.0 2.0 0.00 0.00 0.00 36 1013.6
20260509120222 58 186 1.0 2.0 0.00 0.00 0.00 35 1013.4
20260509115222 57 274 2.0 2.0 0.00 0.00 0.00 37 1013.3
20260509114222 58 229 0.0 0.0 0.00 0.00 0.00 37 1013.2
20260509113220 59 293 4.0 6.0 0.00 0.00 0.00 33 1013.0
20260509112243 59 296 1.0 2.0 0.00 0.00 0.00 34 1013.1
20260509111223 60 299 1.0 2.0 0.00 0.00 0.00 32 1012.9
20260509110223 60 294 3.0 4.0 0.00 0.00 0.00 30 1012.9
20260509105223 58 306 3.0 4.0 0.00 0.00 0.00 34 1013.0
20260509104225 60 96 1.0 1.0 0.00 0.00 0.00 32 1012.9
20260509103224 60 329 2.0 2.0 0.00 0.00 0.00 33 1012.7
20260509102221 59 312 3.0 5.0 0.00 0.00 0.00 33 1012.9
20260509101224 58 281 2.0 3.0 0.00 0.00 0.00 36 1012.9
20260509100224 58 184 1.0 1.0 0.00 0.00 0.00 34 1013.1
20260509095225 59 208 1.0 1.0 0.00 0.00 0.00 34 1013.1
20260509094224 60 234 2.0 3.0 0.00 0.00 0.00 32 1013.2
20260509093221 61 292 2.0 4.0 0.00 0.00 0.00 31 1013.1
20260509092222 61 291 3.0 4.0 0.00 0.00 0.00 30 1013.0
20260509091216 61 241 5.0 9.0 0.00 0.00 0.00 30 1012.9
20260509090216 61 286 3.0 5.0 0.00 0.00 0.00 32 1012.9
20260509085217 61 227 3.0 5.0 0.00 0.00 0.00 32 1012.8
20260509084216 61 294 3.0 6.0 0.00 0.00 0.00 33 1012.7
20260509083220 60 299 3.0 6.0 0.00 0.00 0.00 33 1012.6
20260509082223 60 286 3.0 5.0 0.00 0.00 0.00 35 1012.7
20260509081243 58 289 4.0 8.0 0.00 0.00 0.00 37 1012.7
20260509080226 57 231 2.0 2.0 0.00 0.00 0.00 40 1012.7
20260509075217 56 288 2.0 3.0 0.00 0.00 0.00 39 1012.8
20260509074226 54 319 1.0 1.0 0.00 0.00 0.00 50 1013.0
20260509073227 55 278 1.0 2.0 0.00 0.00 0.00 50 1013.2
20260509072227 55 252 2.0 3.0 0.00 0.00 0.00 47 1013.2
20260509071227 54 2 2.0 3.0 0.00 0.00 0.00 49 1013.3
20260509070228 55 317 1.0 2.0 0.00 0.00 0.00 54 1013.2
20260509065227 56 312 1.0 1.0 0.00 0.00 0.00 52 1013.3
20260509064227 56 224 1.0 2.0 0.00 0.00 0.00 53 1013.2
20260509063227 58 192 2.0 2.0 0.00 0.00 0.00 51 1013.2
20260509062248 57 252 2.0 3.0 0.00 0.00 0.00 51 1013.3
20260509061228 57 208 3.0 4.0 0.00 0.00 0.00 52 1013.4
20260509060228 56 201 2.0 2.0 0.00 0.00 0.00 52 1013.6
20260509055228 56 212 3.0 4.0 0.00 0.00 0.00 48 1013.7
20260509054248 54 199 3.0 3.0 0.00 0.00 0.00 59 1013.8
20260509053228 54 211 2.0 3.0 0.00 0.00 0.00 60 1014.0
20260509052228 55 206 3.0 4.0 0.00 0.00 0.00 60 1014.1
20260509051229 56 183 3.0 4.0 0.00 0.00 0.00 57 1014.2
20260509050241 56 191 4.0 6.0 0.00 0.00 0.00 55 1014.3
20260509045240 57 189 3.0 4.0 0.00 0.00 0.00 55 1014.4
20260509044240 56 193 4.0 5.0 0.00 0.00 0.00 57 1014.6
20260509043220 57 193 4.0 5.0 0.00 0.00 0.00 57 1014.7
20260509042220 56 198 5.0 6.0 0.00 0.00 0.00 58 1014.8
20260509041251 55 190 4.0 4.0 0.00 0.00 0.00 59 1015.1
20260509040231 55 201 2.0 3.0 0.00 0.00 0.00 60 1015.1
20260509035251 55 188 2.0 3.0 0.00 0.00 0.00 59 1015.3
20260509034230 55 196 2.0 2.0 0.00 0.00 0.00 61 1015.3
20260509033231 56 204 2.0 2.0 0.00 0.00 0.00 63 1015.4
20260509032310 57 215 1.0 1.0 0.00 0.00 0.00 61 1015.3
20260509031310 57 268 1.0 1.0 0.00 0.00 0.00 55 1015.2
20260509030311 58 249 0.0 1.0 0.00 0.00 0.00 54 1015.1
20260509025231 58 224 1.0 1.0 0.00 0.00 0.00 52 1015.0
20260509024231 58 247 1.0 1.0 0.00 0.00 0.00 55 1014.9
20260509023231 58 279 0.0 1.0 0.00 0.00 0.00 57 1014.8
20260509022251 59 259 1.0 1.0 0.00 0.00 0.00 57 1014.7
20260509021232 60 258 2.0 2.0 0.00 0.00 0.00 55 1014.6
20260509020217 61 287 1.0 1.0 0.00 0.00 0.00 48 1014.5
20260509015217 61 225 1.0 2.0 0.00 0.00 0.00 47 1014.4
20260509014217 62 220 1.0 1.0 0.00 0.00 0.00 47 1014.3
20260509013217 62 351 2.0 2.0 0.00 0.00 0.00 45 1014.3
20260509012217 63 165 1.0 2.0 0.00 0.00 0.00 44 1014.3
20260509011238 63 1 2.0 3.0 0.00 0.00 0.00 43 1014.2
20260509010236 64 112 2.0 2.0 0.00 0.00 0.00 43 1014.1
20260509005216 64 124 2.0 3.0 0.00 0.00 0.00 42 1014.1
20260509004216 64 150 2.0 3.0 0.00 0.00 0.00 42 1014.0
20260509003217 65 205 1.0 2.0 0.00 0.00 0.00 42 1014.0
20260509002217 65 165 3.0 3.0 0.00 0.00 0.00 41 1014.0
20260509001219 65 59 2.0 2.0 0.00 0.00 0.00 40 1014.0
20260509000219 65 78 1.0 3.0 0.00 0.00 0.00 41 1014.0
20260508235219 65 108 4.0 5.0 0.00 0.00 0.00 42 1014.0
20260508234218 65 147 3.0 4.0 0.00 0.00 0.00 42 1014.0
20260508233218 65 356 2.0 2.0 0.00 0.00 0.00 41 1014.0
20260508232218 65 139 5.0 6.0 0.00 0.00 0.00 42 1014.0
20260508231238 66 16 4.0 7.0 0.00 0.00 0.00 42 1013.9
20260508230218 65 16 3.0 6.0 0.00 0.00 0.00 41 1014.0
20260508225218 65 207 2.0 2.0 0.00 0.00 0.00 42 1014.0
20260508224219 65 36 3.0 4.0 0.00 0.00 0.00 42 1014.0
20260508223219 65 40 2.0 4.0 0.00 0.00 0.00 42 1014.1
20260508222221 65 154 4.0 5.0 0.00 0.00 0.00 44 1014.3
20260508221219 64 302 1.0 2.0 0.00 0.00 0.00 44 1014.4
20260508220222 64 61 5.0 8.0 0.00 0.00 0.00 45 1014.4
20260508215219 64 31 4.0 5.0 0.00 0.00 0.00 44 1014.4
20260508214219 64 161 3.0 8.0 0.00 0.00 0.00 45 1014.5
20260508213219 64 15 3.0 5.0 0.00 0.00 0.00 45 1014.6
20260508212219 64 11 3.0 5.0 0.00 0.00 0.00 44 1014.6
20260508211300 64 221 2.0 3.0 0.00 0.00 0.00 44 1014.7
20260508210220 64 174 2.0 4.0 0.00 0.00 0.00 44 1014.8
20260508205216 63 23 4.0 5.0 0.00 0.00 0.00 46 1015.0
20260508204225 62 177 4.0 6.0 0.00 0.00 0.00 48 1015.0
20260508203220 62 35 4.0 8.0 0.00 0.00 0.00 47 1015.1
20260508202220 62 118 5.0 7.0 0.00 0.00 0.00 47 1015.1
20260508201216 62 30 3.0 6.0 0.00 0.00 0.00 48 1015.2
20260508200221 62 4 3.0 4.0 0.00 0.00 0.00 47 1015.4
20260508195222 62 37 3.0 6.0 0.00 0.00 0.00 49 1015.4
20260508194223 62 356 4.0 5.0 0.00 0.00 0.00 48 1015.5
20260508193241 61 13 2.0 4.0 0.00 0.00 0.00 49 1015.6
20260508192217 61 33 5.0 7.0 0.00 0.00 0.00 50 1015.6
20260508191217 0 44 3.0 5.0 0.00 0.00 0.00
20260508190223 60 41 4.0 6.0 0.00 0.00 0.00 49 1015.7
20260508185218 60 186 2.0 2.0 0.00 0.00 0.00 51 1015.9